[[{"header":{"parameterUnit":"m.s-1","parameterCategory":1,"la1":30.2991,"la2":30.254,"lo1":-89.0895,"lo2":-89.0444,"dy":0.0017,"dx":0.0017,"nx":28,"ny":28,"refTime":"2025-03-12T21:00:00:Z","depth":0,"parameterNumber":2,"parameterNumberName":"U-component_of_WINDS"},"data":[0,0,0,0,0,0,0,0,0,0,0,0,0,0,0,0,0,0,0,0,0,0,0,0,0,0,0,0,0,0,0,0,0,0,0,0,0,0,0,0,0,0,0,0,0,0,0,0,0,0,0,0,0,0,0,0,0,0,-2.2934,-2.2935,0,-2.3014,-2.3015,-2.3016,-2.3016,-2.3015,-2.3014,-2.3013,-2.3096,-2.3099,-2.3102,0,0,0,0,0,0,0,0,0,0,0,0,0,-2.2781,-2.2784,-2.2934,-2.2935,-2.2936,-2.3014,-2.3015,-2.3016,-2.3016,-2.3015,-2.3014,-2.3012,-2.3095,-2.3099,-2.3102,0,0,0,0,0,0,0,0,0,0,0,0,0,-2.2853,-2.2785,-2.2934,-2.2945,-2.2947,-2.3014,-2.3015,-2.3017,-2.3016,-2.3015,-2.3013,-2.3012,-2.3094,-2.3098,-2.3103,-2.3164,0,0,-2.3118,-2.312,0,0,0,0,0,0,0,0,-2.2849,-2.2859,-2.2942,-2.2944,-2.2947,-2.3003,-2.2992,-2.3066,-2.3017,-2.299,-2.3013,-2.3011,-2.3066,-2.3073,-2.3092,-2.3168,-2.3171,-2.3118,-2.3121,-2.3123,-2.3124,0,0,0,0,0,0,0,-2.2844,-2.2855,-2.2966,-2.2944,-2.2946,-2.2947,-2.2955,-2.3006,-2.3036,-2.2992,-2.2992,-2.3002,-2.3067,-2.3087,-2.3094,-2.3172,-2.3118,-2.3122,-2.3125,-2.3127,-2.3302,-2.3304,0,0,0,0,0,0,-2.2836,-2.2851,-2.2963,-2.2968,-2.2893,-2.2951,-2.296,-2.2987,-2.3036,-2.3041,-2.3003,-2.3002,-2.308,-2.3088,-2.3097,-2.3171,-2.3123,-2.3127,-2.313,-2.33,-2.3302,-2.3304,0,0,0,0,0,0,-2.2833,-2.2846,-2.296,-2.291,-2.2924,-2.2955,-2.2985,-2.2989,-2.3009,-2.3044,-2.3049,-2.3018,-2.3079,-2.309,-2.3147,-2.3173,-2.3129,-2.3134,-2.3298,-2.3301,-2.3303,-2.3319,0,0,0,0,0,0,-2.2829,-2.2845,-2.2868,-2.291,-2.2927,-2.3008,-2.2987,-2.2992,-2.3017,-2.3016,-2.3059,-2.3065,-2.3079,-2.314,-2.3152,-2.3179,-2.3138,-2.3296,-2.3299,-2.3303,-2.3316,-2.3322,-2.3327,0,0,0,0,0,-2.2823,-2.287,-2.287,-2.2883,-2.2956,-2.301,-2.3019,-2.3034,-2.3019,-2.3043,-2.3065,-2.3063,-2.3169,-2.3146,-2.3159,-2.3188,-2.3294,-2.3298,-2.3302,-2.3314,-2.3321,-2.3326,0,0,0,0,0,0,-2.283,-2.2875,-2.2876,-2.2937,-2.297,-2.301,-2.304,-2.3041,-2.3079,-2.3076,-2.3093,-2.3103,-2.316,-2.318,-2.3153,-2.325,-2.323,-2.3237,-2.3234,-2.3241,-2.3246,-2.3239,-2.3141,0,0,0,0,0,-2.2839,-2.2879,-2.2916,-2.2967,-2.2983,-2.3009,-2.3033,-2.3041,-2.3076,-2.309,-2.3116,-2.315,-2.3191,-2.3217,-2.3257,-2.332,-2.3329,-2.3347,-2.3352,-2.3356,-2.3361,-2.3396,-2.3404,-2.3318,-2.3318,-2.3317,0,0,-2.2858,-2.2887,-2.2911,-2.2969,-2.2995,-2.3036,-2.302,-2.3064,-2.3094,-2.3096,-2.3151,-2.3172,-2.3211,-2.3271,-2.3299,-2.329,-2.3387,-2.3361,-2.3364,-2.3367,-2.34,-2.3409,-2.3416,-2.332,-2.332,-2.3319,0,0,-2.2911,-2.2938,-2.2982,-2.3009,-2.3049,-2.3066,-2.3077,-2.3117,-2.3131,-2.3187,-2.3189,-2.3226,-2.3296,-2.3323,-2.3346,-2.3412,-2.3411,-2.3424,-2.3451,-2.3484,-2.3491,-2.3497,-2.3519,-2.3527,-2.343,-2.343,-2.343,0,-2.2929,-2.299,-2.3005,-2.3049,-2.3074,-2.3078,-2.3124,-2.3149,-2.32,-2.3218,-2.3207,-2.3295,-2.3321,-2.3388,-2.3403,-2.3423,-2.3435,-2.3418,-2.3489,-2.3495,-2.3501,-2.3522,-2.3531,-2.3431,-2.3431,-2.3431,-2.3431,0,-2.3009,-2.3052,-2.3083,-2.3131,-2.3161,-2.3205,-2.3227,-2.3255,-2.3262,-2.328,-2.3337,-2.3369,-2.3415,-2.3432,-2.3439,-2.3499,-2.3492,-2.3485,-2.3465,-2.351,-2.353,-2.3539,-2.3433,-2.3432,-2.3432,-2.3432,0,0,-2.3068,-2.3125,-2.3136,-2.3158,-2.3203,-2.3236,-2.3281,-2.3326,-2.3349,-2.3385,-2.3422,-2.3482,-2.3476,-2.3502,-2.3512,-2.3542,-2.359,-2.3531,-2.3532,-2.354,-2.3658,-2.3662,-2.3671,-2.3591,-2.3593,-2.3594,-2.3654,0,-2.3126,-2.3204,-2.322,-2.3289,-2.3328,-2.3333,-2.3372,-2.3404,-2.3422,-2.3459,-2.3479,-2.3521,-2.351,-2.3526,-2.3555,-2.3578,-2.3614,-2.3574,-2.3626,-2.3627,-2.3614,-2.3682,-2.3686,-2.3742,-2.3663,-2.3664,-2.3665,0,-2.3203,-2.324,-2.3312,-2.3351,-2.3369,-2.3403,-2.3445,-2.348,-2.3517,-2.3528,-2.3558,-2.3565,-2.3612,-2.3591,-2.3656,-2.3629,-2.3651,-2.3666,-2.3668,-2.3672,-2.3648,-2.3687,-2.376,-2.3767,-2.3678,-2.3677,-2.3676,0,-2.3237,-2.3305,-2.3357,-2.3376,-2.3424,-2.3448,-2.3469,-2.3504,-2.353,-2.3567,-2.3584,-2.3627,-2.365,-2.3683,-2.3701,-2.3684,-2.3765,-2.3745,-2.3775,-2.3774,-2.379,-2.3788,-2.3866,-2.3807,-2.3807,-2.3807,-2.3807,0,-2.3299,-2.3342,-2.3373,-2.3405,-2.3454,-2.3472,-2.352,-2.3541,-2.3573,-2.3609,-2.3617,-2.365,-2.3674,-2.3711,-2.3726,-2.3777,-2.3788,-2.3798,-2.3801,-2.3796,-2.3795,-2.381,-2.3806,-2.3809,-2.3808,-2.3808,-2.3808,0,-2.3344,-2.3367,-2.3423,-2.3464,-2.3475,-2.351,-2.3545,-2.3576,-2.3595,-2.3641,-2.3652,-2.3682,-2.3727,-2.3749,-2.3804,-2.3815,-2.3872,-2.3873,-2.3859,-2.386,-2.3888,-2.3884,-2.3977,-2.3989,-2.3923,-2.3924,-2.3924,0,-2.3381,-2.3415,-2.346,-2.3484,-2.3505,-2.3545,-2.3572,-2.3591,-2.3618,-2.3663,-2.3689,-2.3733,-2.377,-2.384,-2.3867,-2.391,-2.3911,-2.3941,-2.3918,-2.3912,-2.391,-2.3907,-2.391,-2.3944,-2.3945,-2.3946,-2.3946,0,-2.3444,-2.3454,-2.3491,-2.3533,-2.3564,-2.3598,-2.3631,-2.3651,-2.3676,-2.3707,-2.3752,-2.378,-2.3837,-2.3881,-2.3925,-2.3947,-2.3951,-2.3953,-2.3962,-2.3957,-2.3947,-2.3951,-2.3869,-2.3951,-2.395,-2.395,-2.395,-2.3949,-2.3486,-2.3516,-2.3552,-2.3593,-2.3621,-2.3652,-2.3683,-2.3706,-2.3744,-2.3791,-2.38,-2.3848,-2.3884,-2.3944,-2.3968,-2.4006,-2.3999,-2.4012,-2.4015,-2.4018,-2.4019,-2.3942,-2.4014,-2.4014,-2.4014,-2.4014,-2.4014,0,-2.3548,-2.3572,-2.361,-2.3656,-2.3689,-2.369,-2.3727,-2.3754,-2.3796,-2.3829,-2.3865,-2.3917,-2.396,-2.3991,-2.4034,-2.4059,-2.4061,-2.4069,-2.4067,-2.4072,-2.4022,-2.401,-2.4066,-2.4066,-2.4066,-2.4066,-2.4066,-2.4066,-2.3585,-2.3635,-2.3649,-2.3713,-2.3736,-2.3782,-2.3803,-2.3832,-2.3859,-2.3916,-2.3952,-2.3971,-2.4004,-2.405,-2.409,-2.4098,-2.4113,-2.412,-2.4128,-2.4081,-2.4075,-2.407,-2.4058,-2.4124,-2.4124,-2.4174,-2.4175,-2.4175]},{"header":{"parameterUnit":"m.s-1","parameterCategory":1,"la1":30.2991,"la2":30.254,"lo1":-89.0895,"lo2":-89.0444,"dy":0.0017,"dx":0.0017,"nx":28,"ny":28,"refTime":"2025-03-12T21:00:00:Z","depth":0,"parameterNumber":3,"parameterNumberName":"V-component_of_WINDS"},"data":[0,0,0,0,0,0,0,0,0,0,0,0,0,0,0,0,0,0,0,0,0,0,0,0,0,0,0,0,0,0,0,0,0,0,0,0,0,0,0,0,0,0,0,0,0,0,0,0,0,0,0,0,0,0,0,0,0,0,2.5278,2.5279,0,2.5337,2.5338,2.5339,2.5329,2.5328,2.5327,2.5326,2.5388,2.539,2.5393,0,0,0,0,0,0,0,0,0,0,0,0,0,2.516,2.5162,2.5278,2.5279,2.528,2.5337,2.5338,2.5339,2.533,2.5328,2.5327,2.5326,2.5387,2.539,2.5393,0,0,0,0,0,0,0,0,0,0,0,0,0,2.5214,2.5163,2.5278,2.5282,2.5283,2.5337,2.5338,2.5339,2.533,2.5328,2.5327,2.5325,2.5386,2.539,2.5393,2.5448,0,0,2.5405,2.5407,0,0,0,0,0,0,0,0,2.5211,2.5219,2.5281,2.5282,2.5283,2.5324,2.5319,2.5376,2.533,2.5312,2.5326,2.5325,2.5368,2.5373,2.5388,2.5451,2.5453,2.5406,2.5408,2.541,2.5411,0,0,0,0,0,0,0,2.5207,2.5216,2.5302,2.5282,2.5283,2.5282,2.5288,2.5329,2.5348,2.5313,2.5313,2.532,2.5368,2.5384,2.5389,2.5454,2.5406,2.5409,2.5411,2.5413,2.5567,2.5569,0,0,0,0,0,0,2.5202,2.5213,2.53,2.5303,2.5243,2.5285,2.5292,2.5313,2.5347,2.5351,2.5321,2.5319,2.5378,2.5385,2.5391,2.5459,2.541,2.5413,2.5415,2.5565,2.5568,2.5569,0,0,0,0,0,0,2.52,2.521,2.5297,2.5258,2.5269,2.5289,2.5312,2.5315,2.533,2.5353,2.5357,2.5334,2.5377,2.5386,2.5434,2.5461,2.5415,2.5419,2.5563,2.5566,2.5569,2.5593,0,0,0,0,0,0,2.5197,2.5209,2.5229,2.5259,2.5271,2.5339,2.5314,2.5317,2.5337,2.5335,2.5366,2.5369,2.5377,2.5429,2.5438,2.5465,2.5422,2.5561,2.5565,2.5568,2.559,2.5596,2.5602,0,0,0,0,0,2.5192,2.5234,2.5231,2.5241,2.5297,2.534,2.5348,2.5355,2.5339,2.536,2.5375,2.5368,2.5456,2.5434,2.5444,2.5473,2.5559,2.5564,2.5567,2.5587,2.5595,2.5601,0,0,0,0,0,0,2.5207,2.5238,2.5234,2.5286,2.5311,2.5339,2.5365,2.5362,2.5392,2.5389,2.5397,2.5404,2.5454,2.5468,2.5442,2.5528,2.5506,2.5512,2.5517,2.5525,2.553,2.5526,2.5425,0,0,0,0,0,2.5216,2.5249,2.5274,2.5317,2.533,2.5346,2.5365,2.5368,2.5394,2.5404,2.5423,2.5449,2.5482,2.5504,2.5536,2.5592,2.56,2.5617,2.5623,2.5627,2.5633,2.5666,2.5675,2.5583,2.5583,2.5583,0,0,2.5236,2.5257,2.5277,2.5321,2.534,2.5375,2.5354,2.5391,2.5417,2.541,2.5457,2.5472,2.5501,2.5555,2.5579,2.5568,2.566,2.5633,2.5636,2.5639,2.5671,2.568,2.5688,2.5585,2.5585,2.5584,0,0,2.529,2.5308,2.5347,2.5367,2.5397,2.5407,2.5417,2.5446,2.5455,2.5503,2.5499,2.553,2.5587,2.5609,2.5627,2.5691,2.5687,2.5701,2.5732,2.5764,2.5771,2.5778,2.5802,2.5811,2.5707,2.5707,2.5707,0,2.531,2.5361,2.5368,2.5405,2.5426,2.5421,2.5462,2.5481,2.552,2.5535,2.5522,2.5595,2.5614,2.5673,2.5689,2.5704,2.5716,2.5698,2.577,2.5776,2.5782,2.5806,2.5815,2.5709,2.5708,2.5708,2.5708,0,2.5386,2.5422,2.545,2.5488,2.5512,2.555,2.5564,2.5587,2.5589,2.5601,2.5651,2.5674,2.5711,2.5725,2.5727,2.5786,2.5778,2.5768,2.5745,2.5793,2.5815,2.5824,2.5711,2.571,2.571,2.5709,0,0,2.5451,2.5493,2.5503,2.5521,2.5554,2.5582,2.5622,2.5658,2.5679,2.5706,2.5741,2.579,2.5781,2.5802,2.5806,2.5834,2.5886,2.582,2.5821,2.5833,2.5954,2.5963,2.5973,2.5883,2.5884,2.5886,2.5952,0,2.5509,2.5578,2.5586,2.5648,2.5682,2.5679,2.5714,2.5739,2.5751,2.5783,2.5797,2.5832,2.5817,2.583,2.5857,2.5873,2.591,2.5869,2.5916,2.5918,2.591,2.5984,2.5994,2.6055,2.596,2.5962,2.5963,0,2.5585,2.5615,2.5681,2.5712,2.5726,2.5757,2.5793,2.5822,2.5851,2.5858,2.5883,2.5884,2.5926,2.5902,2.5961,2.5932,2.5953,2.5964,2.5966,2.5972,2.5944,2.5994,2.6074,2.6084,2.5976,2.5975,2.5974,0,2.5628,2.5685,2.5732,2.5747,2.5783,2.5806,2.5822,2.5849,2.5871,2.5902,2.5917,2.5953,2.5972,2.6,2.6012,2.5993,2.6072,2.6047,2.608,2.608,2.6098,2.6097,2.6184,2.6108,2.6108,2.6108,2.6108,0,2.5693,2.5734,2.5752,2.5781,2.5828,2.5836,2.5882,2.5897,2.5922,2.5955,2.5954,2.5986,2.5998,2.6032,2.6041,2.609,2.6098,2.6107,2.6109,2.6108,2.6107,2.6122,2.6119,2.611,2.611,2.6109,2.6109,0,2.5748,2.5762,2.5814,2.5844,2.5853,2.5886,2.5912,2.5941,2.5954,2.5996,2.6006,2.6026,2.6066,2.608,2.6128,2.6135,2.6192,2.619,2.6182,2.6183,2.6216,2.6214,2.6318,2.6333,2.6245,2.6246,2.6247,0,2.579,2.5821,2.5855,2.5877,2.5894,2.5929,2.5953,2.5963,2.5987,2.6023,2.6048,2.6088,2.612,2.6184,2.6204,2.6241,2.6241,2.6275,2.6246,2.6245,2.6244,2.6242,2.6247,2.628,2.6281,2.6282,2.6283,0,2.5862,2.5867,2.59,2.5936,2.5964,2.5993,2.602,2.6039,2.6053,2.6081,2.6122,2.6147,2.6196,2.6236,2.6275,2.6293,2.6291,2.6291,2.6301,2.6301,2.6296,2.6301,2.6199,2.6289,2.6288,2.6288,2.6288,2.6287,2.5913,2.5942,2.597,2.6008,2.603,2.6056,2.6086,2.6102,2.6136,2.6178,2.6182,2.6226,2.6256,2.6308,2.6327,2.6363,2.6354,2.6368,2.6372,2.6375,2.6379,2.6289,2.637,2.637,2.6369,2.6369,2.6369,0,2.5987,2.6005,2.6039,2.6079,2.6109,2.6104,2.6135,2.616,2.62,2.6227,2.6259,2.6307,2.6346,2.6369,2.6409,2.6433,2.6434,2.6444,2.6443,2.6447,2.6384,2.6372,2.6443,2.6443,2.6443,2.6443,2.6443,2.6443,2.6029,2.6078,2.6087,2.6148,2.6166,2.6209,2.6228,2.6253,2.6275,2.6329,2.6362,2.6376,2.6403,2.6445,2.6481,2.6487,2.6502,2.6513,2.6519,2.6459,2.6452,2.6444,2.6434,2.6516,2.6516,2.658,2.658,2.6581]}]]